Temperature
-1 -0 -0 0 0 0 -0 0 0 1 1 1 1 0 0 1 1 2 2 2 2 2 3 3 3 4 4 4 4 4 4 4 5 5 5 5 5 5 5 5 5 6 6 5
-1 -0 -0 -0 0 0 0 0 0 1 1 1 0 0 0 0 0 1 1 1 2 2 2 2 3 3 3 3 3 4 4 4 4 4 4 4 4 5 5 5 5 5 5 5
-1 -1 -1 -1 -1 -1 -0 -1 -1 0 0 -0 -0 -0 -1 -0 -0 0 0 1 1 1 2 2 2 2 3 3 3 3 3 3 3 4 4 4 4 4 4 4 4 4 4 5
-3 -2 -1 -1 -1 -1 -1 -1 -1 -1 -1 -1 -1 -1 -1 -0 -0 -0 0 0 1 1 1 1 2 2 2 2 3 3 3 3 3 3 3 3 3 3 4 4 4 4 4 4
-3 -3 -2 -1 -1 -2 -2 -1 -2 -2 -2 -2 -1 -1 -1 -0 -0 -0 -0 0 0 1 1 1 1 2 2 2 2 2 2 3 3 3 3 3 3 3 3 3 3 4 4 4
-4 -2 -2 -1 -2 -2 -2 -2 -2 -2 -2 -2 -2 -2 -1 -1 -1 -0 -0 -0 0 0 0 1 1 1 1 1 2 2 2 2 2 2 2 2 2 3 3 3 3 3 3 3
-4 -4 -3 -3 -3 -2 -2 -2 -2 -2 -2 -3 -3 -2 -2 -1 -1 -1 -1 -0 -0 0 0 0 0 1 1 1 1 1 1 2 2 2 2 2 2 2 2 2 3 3 3 3
-5 -4 -3 -3 -3 -3 -3 -2 -2 -2 -2 -3 -3 -2 -2 -2 -2 -1 -1 -1 -1 -0 -0 -0 -0 0 0 0 0 1 1 1 1 1 1 1 1 2 2 2 2 2 2 2
-5 -3 -3 -3 -3 -3 -3 -3 -3 -3 -3 -3 -3 -3 -2 -2 -2 -2 -2 -1 -1 -1 -1 -1 -1 -0 -0 -0 -0 0 0 1 1 1 1 1 1 1 1 1 1 1 1 2
-6 -5 -4 -3 -3 -3 -3 -3 -3 -3 -3 -3 -3 -3 -3 -3 -2 -2 -2 -2 -2 -1 -1 -1 -1 -1 -1 -1 -1 -0 -0 0 0 0 0 0 0 0 0 1 1 1 1 1
-6 -6 -5 -3 -3 -3 -3 -3 -3 -3 -3 -3 -3 -3 -3 -3 -3 -3 -2 -2 -2 -2 -2 -2 -2 -2 -2 -1 -1 -1 -1 -0 -0 -0 -0 -0 -0 -0 -0 0 -0 0 0 0
-5 -5 -5 -4 -3 -3 -4 -4 -3 -4 -4 -4 -4 -4 -4 -3 -3 -3 -3 -3 -3 -2 -2 -2 -2 -2 -2 -2 -2 -1 -1 -1 -1 -1 -1 -1 -1 -0 -1 -1 -1 -0 -0 -0
-4 -4 -4 -4 -4 -4 -4 -4 -4 -4 -4 -4 -4 -4 -4 -4 -4 -4 -3 -3 -3 -3 -3 -3 -3 -2 -2 -2 -2 -2 -1 -1 -1 -1 -1 -1 -1 -1 -1 -1 -1 -1 -1 -1
-4 -5 -5 -4 -4 -4 -4 -4 -4 -4 -4 -4 -4 -4 -4 -4 -4 -4 -4 -4 -4 -3 -3 -3 -3 -3 -3 -3 -2 -2 -2 -2 -2 -2 -2 -2 -2 -2 -2 -2 -1 -1 -1 -1
-5 -5 -5 -5 -5 -5 -5 -5 -5 -5 -5 -5 -5 -5 -5 -4 -4 -4 -4 -4 -4 -4 -4 -4 -4 -3 -3 -3 -3 -3 -2 -2 -2 -2 -2 -2 -2 -2 -2 -2 -2 -2 -2 -2
-5 -5 -5 -5 -5 -5 -5 -5 -5 -5 -5 -5 -5 -5 -5 -5 -5 -5 -5 -5 -4 -4 -4 -4 -4 -4 -4 -4 -3 -3 -3 -3 -3 -3 -3 -3 -3 -3 -3 -3 -3 -2 -2 -2
-6 -6 -5 -5 -5 -5 -5 -5 -5 -5 -5 -5 -5 -5 -5 -5 -5 -5 -5 -5 -5 -5 -5 -5 -4 -4 -4 -4 -4 -4 -4 -3 -3 -3 -3 -3 -3 -3 -3 -3 -3 -3 -3 -3
-5 -5 -6 -6 -6 -6 -6 -6 -6 -6 -6 -6 -6 -6 -6 -6 -6 -6 -5 -5 -5 -5 -5 -5 -5 -5 -4 -4 -4 -4 -4 -4 -4 -4 -4 -4 -4 -4 -4 -4 -4 -3 -3 -3
-6 -6 -6 -6 -6 -6 -6 -6 -6 -6 -6 -6 -6 -6 -6 -6 -6 -6 -6 -6 -6 -6 -5 -5 -5 -5 -5 -5 -5 -5 -5 -5 -5 -5 -5 -5 -5 -4 -4 -4 -4 -4 -4 -4
-6 -6 -6 -6 -6 -6 -6 -6 -6 -6 -6 -6 -6 -6 -6 -6 -6 -6 -6 -6 -6 -6 -6 -6 -6 -6 -6 -6 -5 -5 -5 -5 -5 -5 -5 -5 -5 -5 -5 -5 -5 -4 -4 -4
-6 -6 -6 -6 -6 -6 -6 -6 -6 -6 -6 -7 -7 -6 -7 -7 -7 -7 -7 -6 -6 -7 -7 -7 -6 -6 -6 -6 -6 -6 -6 -6 -6 -6 -6 -6 -6 -6 -6 -5 -5 -5 -5 -5
-6 -6 -6 -6 -6 -6 -6 -7 -7 -7 -7 -7 -7 -7 -7 -7 -7 -7 -7 -7 -7 -7 -7 -7 -7 -7 -7 -7 -7 -7 -7 -7 -7 -7 -6 -6 -6 -6 -6 -6 -6 -5 -5 -5
-7 -7 -7 -7 -7 -7 -7 -7 -7 -7 -7 -7 -7 -7 -7 -7 -7 -7 -7 -7 -7 -7 -7 -7 -7 -7 -7 -7 -7 -7 -7 -7 -7 -7 -7 -7 -7 -6 -6 -6 -6 -6 -5 -5
-7 -7 -7 -7 -7 -7 -7 -7 -7 -7 -7 -7 -7 -7 -8 -8 -8 -8 -8 -8 -8 -8 -8 -8 -8 -8 -8 -8 -8 -8 -7 -7 -7 -7 -7 -7 -7 -7 -7 -6 -6 -6 -6 -5
-7 -7 -7 -7 -7 -7 -7 -8 -8 -7 -7 -8 -8 -8 -8 -8 -8 -8 -8 -8 -8 -8 -8 -8 -8 -8 -8 -8 -8 -8 -8 -8 -8 -8 -7 -7 -7 -7 -7 -6 -6 -6 -6 -6
-7 -8 -8 -8 -8 -8 -8 -8 -8 -8 -8 -8 -8 -8 -8 -8 -8 -8 -8 -8 -8 -8 -8 -8 -8 -8 -8 -8 -8 -8 -8 -8 -8 -8 -8 -7 -7 -7 -7 -7 -7 -7 -6 -6
-8 -8 -8 -8 -8 -8 -8 -8 -8 -8 -8 -8 -8 -8 -8 -9 -9 -9 -9 -9 -9 -9 -9 -9 -8 -8 -8 -8 -8 -8 -8 -8 -8 -8 -8 -8 -8 -7 -7 -7 -7 -7 -7 -7
Wind_Speed
5 7 3 4 6 4 5 5 6 6 6 9 6 5 5 5 5 4 3 3 2 1 2 2 2 2 2 2 2 1 1 1 1 1 1 2 2 2 2 3 3 3 3 3
4 3 2 4 7 6 6 6 7 7 8 6 4 3 3 4 4 4 4 3 3 3 3 2 2 2 2 2 2 1 0 0 0 1 1 2 2 2 2 2 2 2 2 3
3 3 3 4 5 5 4 3 4 6 6 4 4 4 3 4 4 4 5 3 3 3 3 3 3 2 2 2 1 1 0 0 1 1 1 1 2 3 3 2 2 2 2 2
2 3 3 5 2 2 4 4 4 4 4 3 4 5 3 3 3 4 4 4 3 3 4 4 3 3 2 2 1 1 1 1 1 1 1 1 2 2 2 2 2 2 2 2
0 1 5 5 2 1 2 4 2 4 5 4 4 3 3 3 3 3 3 3 3 2 3 3 3 3 2 2 1 1 1 1 0 0 1 1 2 2 1 1 1 1 1 2
1 1 4 5 3 2 1 4 2 2 3 4 3 2 4 5 5 5 3 2 2 2 2 2 3 2 2 2 1 1 1 1 1 0 1 1 1 1 1 1 2 2 1 1
2 4 6 5 4 1 2 5 4 2 3 2 2 4 5 5 5 4 3 3 3 3 2 2 3 2 2 2 3 2 2 1 1 0 0 1 1 1 1 1 2 2 1 1
2 3 6 3 1 2 4 4 4 4 3 3 4 5 4 4 4 4 4 4 3 3 3 3 3 2 2 3 3 3 2 1 1 1 1 1 1 1 1 2 2 1 1 1
6 6 4 2 3 3 3 4 4 4 4 3 4 4 4 4 4 3 3 3 3 2 3 3 3 2 2 3 3 2 2 2 1 1 1 1 1 1 1 1 1 1 1 1
5 7 6 5 4 4 4 4 4 4 4 3 3 4 4 4 4 3 3 3 3 2 3 3 3 3 2 3 3 2 2 2 1 1 1 1 1 1 1 1 1 1 1 1
5 6 6 5 4 5 5 4 4 4 3 3 3 4 3 3 3 3 2 2 2 2 2 3 3 3 3 3 2 2 1 1 1 1 1 1 1 0 1 1 2 2 2 2
6 5 4 6 5 4 4 4 4 4 4 3 3 4 3 3 2 2 2 2 2 2 2 3 3 3 3 3 2 1 1 1 1 1 1 1 1 2 3 1 1 1 0 1
5 4 4 5 5 3 3 4 3 3 3 4 3 2 2 2 2 2 2 2 2 2 2 2 2 3 3 3 2 1 1 1 0 0 1 1 0 0 1 3 3 2 2 2
4 3 3 4 4 4 3 3 2 2 2 2 2 2 1 1 2 1 2 2 2 2 2 2 2 2 3 2 2 1 1 1 1 0 0 1 1 0 0 0 1 2 2 2
4 4 5 4 3 3 2 2 2 3 3 3 2 2 2 2 2 2 2 2 2 2 2 2 2 3 3 2 2 1 1 0 0 1 0 0 0 0 0 0 0 1 1 2
4 3 3 3 4 3 3 2 2 3 3 3 2 2 2 2 2 2 2 2 1 2 2 2 2 3 2 2 2 1 1 1 1 0 0 0 1 1 0 0 0 0 1 1
2 3 3 4 5 4 3 3 3 3 3 3 3 3 2 2 2 2 3 3 2 2 3 2 3 3 2 1 1 1 1 1 2 1 0 0 0 0 0 0 0 1 1 1
5 5 4 4 4 4 4 3 3 3 3 3 3 2 2 1 2 3 3 2 2 3 3 3 3 2 2 1 1 1 1 1 1 1 1 0 0 0 0 0 0 1 1 1
3 3 3 3 3 3 3 3 3 3 3 2 2 2 2 2 2 3 2 2 2 3 4 3 4 3 2 2 2 0 1 1 1 1 1 1 1 0 0 0 1 1 1 1
2 2 2 2 2 2 2 2 2 2 2 2 2 2 2 2 2 2 2 2 2 3 3 4 3 2 2 2 3 0 1 1 1 1 1 1 0 0 0 0 1 1 1 1
2 2 2 2 2 2 2 2 2 2 2 2 2 2 2 3 2 1 1 3 3 3 3 4 3 2 2 2 2 1 1 1 1 1 1 1 1 0 1 1 1 1 1 1
2 2 2 2 1 2 2 1 1 2 2 2 2 2 2 2 2 2 2 3 3 5 3 2 2 3 3 2 1 0 0 0 0 1 1 1 1 1 1 1 1 1 1 1
2 2 2 2 2 2 2 2 1 2 2 2 2 2 2 2 2 1 2 2 2 4 3 2 3 4 4 2 1 0 0 0 1 1 1 1 1 1 1 1 1 1 1 1
2 2 2 1 0 1 2 2 2 2 2 2 2 2 2 1 2 1 2 3 4 4 2 3 5 5 4 1 1 0 0 1 1 1 1 1 1 1 1 1 1 1 1 1
1 1 1 0 0 1 2 2 2 1 1 1 2 2 1 1 1 1 1 2 3 3 2 3 5 5 3 1 1 1 1 1 1 1 1 1 1 1 1 1 1 1 0 0
1 1 1 2 2 2 1 1 1 1 1 1 2 2 1 1 1 1 1 1 2 3 2 2 2 3 2 1 1 1 1 1 1 1 1 1 1 1 1 1 0 0 0 0
1 1 1 1 1 1 1 1 1 2 2 2 2 2 1 1 1 1 1 1 1 1 1 2 2 1 2 1 1 1 1 1 1 1 0 0 0 1 0 0 0 0 1 0
Wind_Direction
260 265 260 270 272 244 214 216 217 245 254 284 309 311 322 336 348 0 4 6 3 354 344 348 358 4 4 356 355 7 78 158 197 181 162 148 148 155 153 156 162 160 155 162
288 277 258 274 277 257 244 242 243 263 278 290 303 322 335 342 348 350 338 337 340 347 346 337 340 340 344 335 336 7 48 219 101 106 131 147 153 150 145 144 138 132 152 166
288 319 346 283 258 228 225 227 221 245 263 310 316 317 311 321 332 325 323 323 325 324 316 320 318 317 318 313 326 359 28 50 90 128 148 164 157 146 153 154 142 144 164 166
296 14 255 251 250 210 227 254 240 263 292 302 291 300 300 306 309 312 319 323 327 329 333 334 332 338 338 340 357 27 44 39 60 102 157 150 146 146 146 144 154 162 169 170
178 271 280 298 303 183 218 284 271 260 291 310 314 325 318 335 324 307 307 317 320 326 330 333 340 343 350 1 10 34 14 345 345 131 166 159 155 153 139 142 155 162 167 169
145 209 253 274 298 292 143 289 311 270 284 305 341 325 296 335 337 337 345 346 344 352 360 355 348 357 12 4 5 351 328 309 306 251 195 191 172 150 126 150 162 152 143 174
208 234 266 284 300 78 164 269 307 269 272 274 255 251 288 322 330 339 348 352 2 7 359 349 352 14 17 4 340 328 338 351 354 351 223 167 132 116 127 122 123 127 122 105
179 214 260 306 81 175 244 294 304 291 283 270 266 284 305 317 324 341 349 357 5 7 353 353 3 19 13 351 335 344 3 13 5 14 44 83 112 93 111 123 131 137 118 75
202 222 255 246 228 265 287 287 292 290 290 277 279 291 307 316 324 332 342 347 354 5 356 359 4 12 356 335 340 356 15 19 16 27 46 80 120 128 111 122 138 162 168 179
258 266 271 270 279 295 291 280 287 284 285 278 277 288 298 304 312 327 341 343 351 7 2 353 356 358 346 338 346 6 18 9 19 41 47 54 86 134 153 172 181 187 194 192
260 283 304 286 282 289 300 305 313 320 312 292 289 291 284 290 300 311 327 336 348 356 341 333 346 356 353 350 360 13 12 7 25 44 69 64 47 19 235 232 224 216 211 193
240 248 240 273 290 295 296 300 301 309 316 312 291 285 286 286 293 302 314 327 338 343 334 329 341 347 347 350 360 22 12 7 26 52 66 73 61 20 10 356 315 274 239 200
244 264 246 268 290 291 280 290 297 292 287 298 309 299 291 294 305 311 315 317 312 309 311 319 336 339 338 343 351 1 326 323 2 74 104 94 92 70 1 7 20 28 54 43
253 264 269 270 275 290 292 304 323 328 319 312 314 318 313 322 329 330 318 311 317 323 324 327 337 331 329 336 346 348 344 333 335 263 202 195 200 222 232 308 355 359 8 26
260 245 246 272 289 303 314 323 336 333 337 340 342 336 331 329 327 325 325 331 346 353 346 352 348 329 331 341 349 347 344 314 300 282 251 220 184 159 132 338 30 11 4 6
281 274 264 271 281 292 308 305 301 303 313 319 326 324 319 313 319 328 336 342 346 332 328 335 325 321 336 352 357 357 350 350 356 349 51 80 88 104 96 97 38 25 0 343
243 265 262 276 278 282 275 268 267 277 289 293 295 302 311 326 335 336 336 337 325 312 317 318 312 323 335 343 359 348 348 346 355 3 12 101 126 160 184 205 283 314 312 309
236 243 242 247 256 262 272 274 272 276 278 281 294 297 290 283 287 299 312 327 344 341 331 318 315 330 337 340 342 323 330 336 338 329 330 345 30 110 130 184 240 278 306 328
258 256 260 258 250 246 257 269 275 278 284 285 280 275 274 272 277 293 310 329 330 322 321 324 332 347 344 331 333 331 333 324 333 344 338 340 7 35 85 209 245 265 285 326
286 285 278 278 271 257 265 277 279 286 288 281 270 277 291 294 295 299 311 307 289 276 291 311 327 327 321 315 323 301 276 280 299 319 332 332 345 342 312 255 244 263 279 304
287 290 285 280 288 292 279 269 259 274 289 280 253 256 271 290 295 292 297 301 303 301 302 315 324 311 304 306 311 273 247 257 271 286 303 297 276 279 287 283 275 268 281 300
274 277 277 276 281 299 305 293 269 272 283 282 268 255 265 287 297 299 274 263 284 312 323 316 308 314 320 319 300 259 245 257 273 275 270 264 250 242 253 263 272 274 274 275
267 267 267 264 265 287 310 309 287 270 265 266 260 253 252 263 269 275 293 290 291 313 328 314 322 330 336 352 8 351 293 263 259 256 257 252 243 237 242 249 255 252 251 265
273 281 282 289 301 314 305 303 298 283 270 272 265 255 246 264 287 271 264 298 315 320 324 324 335 340 344 8 7 343 304 283 271 261 254 241 230 231 235 238 240 238 242 251
273 283 288 290 275 274 280 300 318 313 306 305 304 296 277 247 249 274 289 302 316 330 336 339 344 347 1 10 358 321 291 273 262 254 245 236 233 235 231 231 227 226 232 245
270 274 269 260 260 267 276 283 290 292 296 306 313 315 317 313 291 291 300 310 313 329 335 335 342 347 355 356 345 326 309 310 314 307 267 246 241 243 232 220 225 206 160 88
315 308 308 314 304 282 268 263 266 274 271 268 291 303 312 322 326 323 324 329 330 339 336 336 339 340 337 334 335 333 323 313 307 297 295 291 268 254 226 194 18 83 69 64
Height
1482 1478 1476 1475 1473 1472 1473 1473 1473 1466 1464 1459 1458 1458 1455 1453 1451 1449 1449 1449 1449 1449 1449 1450 1450 1450 1451 1452 1453 1454 1455 1456 1458 1460 1461 1463 1465 1467 1469 1471 1473 1474 1476 1477
1480 1474 1474 1473 1470 1470 1470 1469 1468 1464 1462 1459 1458 1457 1455 1454 1452 1450 1450 1449 1449 1449 1449 1449 1449 1449 1450 1450 1451 1452 1453 1455 1456 1458 1459 1461 1462 1464 1466 1468 1470 1471 1473 1475
1481 1477 1474 1475 1470 1468 1468 1467 1467 1464 1462 1459 1458 1457 1456 1454 1453 1451 1450 1449 1449 1448 1448 1448 1449 1449 1449 1449 1450 1450 1452 1453 1454 1456 1457 1459 1460 1462 1464 1465 1467 1469 1471 1472
1486 1482 1481 1472 1467 1466 1466 1465 1464 1462 1461 1460 1459 1457 1455 1454 1453 1451 1450 1449 1448 1448 1448 1448 1448 1448 1448 1449 1449 1449 1451 1451 1453 1454 1455 1456 1458 1460 1461 1463 1465 1467 1468 1469
1488 1486 1479 1470 1466 1467 1468 1465 1463 1462 1460 1459 1457 1455 1454 1453 1452 1451 1450 1449 1448 1448 1448 1448 1447 1447 1447 1448 1448 1448 1449 1450 1451 1452 1453 1454 1456 1457 1459 1461 1462 1464 1465 1467
1490 1485 1479 1471 1467 1465 1468 1466 1462 1461 1460 1459 1457 1457 1455 1452 1451 1450 1449 1448 1448 1447 1447 1447 1447 1446 1446 1446 1447 1447 1448 1449 1450 1451 1452 1453 1454 1455 1457 1458 1460 1461 1462 1464
1490 1488 1477 1469 1466 1465 1471 1467 1462 1460 1459 1458 1457 1457 1454 1452 1451 1450 1448 1447 1447 1446 1446 1446 1446 1445 1445 1445 1445 1446 1447 1448 1449 1450 1450 1451 1452 1453 1455 1456 1457 1458 1460 1461
1491 1488 1479 1468 1466 1468 1466 1462 1460 1458 1457 1456 1455 1453 1452 1451 1449 1448 1447 1447 1446 1445 1445 1445 1444 1444 1444 1444 1444 1445 1446 1447 1447 1448 1449 1450 1451 1452 1453 1453 1455 1456 1457 1458
1482 1476 1468 1466 1465 1464 1463 1461 1459 1457 1456 1454 1452 1451 1450 1449 1448 1447 1446 1446 1445 1444 1444 1444 1444 1443 1443 1443 1444 1444 1444 1445 1446 1447 1447 1448 1449 1450 1450 1451 1452 1453 1454 1455
1476 1468 1465 1464 1462 1461 1460 1459 1457 1455 1454 1452 1451 1450 1449 1448 1447 1446 1445 1445 1444 1443 1442 1442 1443 1443 1443 1443 1443 1443 1443 1444 1444 1445 1446 1447 1447 1448 1449 1449 1450 1450 1451 1452
1473 1466 1463 1460 1460 1459 1457 1456 1454 1453 1452 1451 1449 1448 1447 1446 1445 1445 1444 1443 1443 1442 1442 1442 1442 1442 1442 1442 1442 1442 1442 1442 1443 1444 1444 1445 1446 1447 1447 1448 1448 1449 1449 1450
1467 1463 1463 1460 1458 1457 1456 1454 1453 1452 1450 1449 1448 1447 1446 1445 1444 1444 1443 1442 1442 1442 1441 1441 1441 1441 1441 1441 1441 1441 1441 1441 1442 1442 1443 1443 1444 1444 1445 1446 1446 1447 1448 1449
1461 1460 1459 1457 1456 1455 1454 1453 1451 1450 1449 1448 1447 1446 1445 1444 1443 1442 1442 1442 1441 1441 1440 1440 1440 1440 1440 1440 1440 1440 1440 1440 1440 1441 1441 1442 1442 1442 1442 1443 1444 1445 1445 1446
1458 1458 1456 1455 1454 1453 1452 1451 1450 1448 1447 1446 1445 1444 1443 1442 1442 1441 1441 1441 1440 1440 1439 1439 1439 1439 1439 1439 1439 1439 1439 1439 1439 1440 1440 1440 1441 1441 1441 1441 1441 1442 1443 1444
1455 1455 1454 1453 1452 1451 1450 1449 1448 1447 1446 1445 1444 1443 1442 1442 1441 1440 1440 1440 1439 1438 1438 1438 1437 1438 1438 1438 1437 1437 1437 1437 1438 1438 1438 1439 1439 1440 1440 1440 1440 1441 1441 1442
1452 1451 1451 1450 1449 1448 1447 1447 1446 1445 1444 1443 1443 1442 1441 1441 1440 1440 1439 1439 1438 1437 1437 1437 1436 1436 1436 1436 1436 1436 1436 1436 1436 1436 1437 1437 1437 1438 1438 1439 1439 1439 1440 1440
1448 1447 1447 1446 1446 1446 1445 1445 1444 1443 1443 1442 1441 1441 1440 1439 1439 1438 1438 1438 1437 1436 1436 1436 1435 1435 1435 1435 1434 1434 1434 1434 1435 1435 1435 1435 1436 1436 1437 1437 1437 1438 1438 1439
1446 1445 1445 1445 1444 1443 1443 1442 1442 1442 1441 1440 1440 1439 1439 1438 1437 1437 1436 1436 1435 1435 1435 1434 1434 1434 1433 1433 1433 1433 1432 1432 1433 1433 1433 1433 1434 1434 1435 1435 1436 1436 1437 1437
1443 1443 1442 1442 1442 1442 1441 1440 1440 1440 1439 1439 1438 1438 1437 1437 1436 1436 1435 1434 1434 1433 1433 1433 1432 1432 1432 1431 1431 1431 1431 1431 1431 1431 1431 1432 1432 1433 1433 1434 1434 1435 1435 1436
1440 1440 1440 1440 1440 1439 1439 1438 1438 1438 1438 1437 1436 1436 1436 1435 1435 1434 1434 1433 1432 1432 1431 1431 1430 1430 1430 1429 1429 1429 1429 1429 1429 1429 1430 1430 1430 1431 1431 1432 1432 1433 1433 1434
1438 1438 1437 1437 1437 1437 1437 1437 1436 1436 1436 1435 1435 1434 1434 1434 1433 1433 1432 1431 1431 1430 1430 1429 1429 1428 1428 1428 1428 1427 1427 1427 1428 1428 1428 1428 1429 1429 1430 1430 1431 1431 1431 1432
1436 1436 1435 1435 1435 1435 1435 1435 1434 1434 1434 1434 1433 1433 1432 1432 1432 1431 1430 1430 1429 1429 1428 1428 1427 1427 1426 1426 1426 1426 1426 1426 1426 1426 1427 1427 1427 1428 1428 1429 1429 1429 1430 1431
1434 1434 1434 1433 1433 1433 1433 1432 1432 1432 1432 1432 1431 1431 1431 1430 1430 1429 1429 1428 1428 1427 1427 1426 1426 1425 1425 1425 1424 1424 1424 1424 1424 1425 1425 1425 1425 1426 1426 1427 1427 1428 1428 1429
1432 1432 1432 1432 1431 1431 1430 1430 1430 1430 1430 1429 1429 1429 1429 1428 1428 1428 1427 1427 1426 1426 1425 1425 1424 1424 1423 1423 1423 1423 1423 1422 1422 1423 1423 1423 1424 1424 1425 1425 1426 1426 1427 1428
1431 1430 1430 1430 1429 1429 1429 1428 1428 1428 1428 1427 1427 1427 1427 1427 1426 1426 1425 1425 1424 1424 1423 1423 1423 1422 1422 1422 1421 1421 1421 1421 1421 1421 1421 1422 1422 1422 1423 1423 1424 1425 1425 1426
1429 1429 1429 1428 1428 1427 1427 1427 1426 1426 1426 1425 1425 1425 1425 1425 1424 1424 1424 1423 1423 1423 1422 1422 1421 1421 1421 1420 1420 1420 1420 1420 1420 1420 1420 1420 1421 1421 1422 1422 1423 1423 1424 1425
1428 1428 1427 1427 1426 1426 1425 1425 1425 1424 1424 1424 1423 1423 1423 1423 1422 1422 1422 1422 1421 1421 1421 1420 1420 1420 1420 1419 1419 1419 1419 1419 1419 1419 1419 1419 1419 1420 1421 1421 1422 1423 1423 1424